Regional Weather Roundup
Issued by NWS Sioux Falls, SD

Home | Current Version | Previous Version | Text Only | Print | Product List | Glossary Off
Versions: 1 2 3 4 5 6 7 8 9 10 11 12 13 14 15 16 17 18 19 20 21 22 23 24 25 26 27 28 29 30 31 32 33 34 35 36 37 38 39 40 41 42 43 44 45 46 47 48 49 50

000
ASUS43 KFSD 240810
RWRFSD

WEATHER ROUNDUP FOR SE SOUTH DAKOTA/SW MINNESOTA/NW IOWA
NATIONAL WEATHER SERVICE SIOUX FALLS SD
300 AM CDT THU APR 24 2014

NOTE: "FAIR" INDICATES FEW OR NO CLOUDS BELOW 12,000 FEET WITH NO
SIGNIFICANT WEATHER AND OR OBSTRUCTIONS TO VISIBILITY.


SDZ038>040-050-052>070-240900-
SOUTHEAST SOUTH DAKOTA

CITY           SKY/WX    TMP DP  RH WIND       PRES   REMARKS
CHAMBERLAIN      N/A     51  38  60 NW15      29.72F
HURON          LGT RAIN  46  41  82 E5        29.69S
MADISON        LGT RAIN  43  43 100 E8        29.67F
MITCHELL       LGT RAIN  48  42  80 NE7       29.67F
SIOUX FALLS    LGT RAIN  47  43  86 E12       29.66F
WINNER         FAIR      51  37  58 NW14      29.76S
YANKTON        CLOUDY    48  46  93 E5        29.64S
$$

MNZ071-072-080-081-089-090-097-098-240900-
SOUTHWEST MINNESOTA

CITY           SKY/WX    TMP DP  RH WIND       PRES   REMARKS
FAIRMONT       CLOUDY    43  37  81 SE15      29.77R
JACKSON        RAIN      43  39  87 SE8       29.74F
LUVERNE        CLOUDY    46  41  81 E10       29.69F
MARSHALL       CLOUDY    45  36  70 SE16      29.72F
MONTEVIDEO     DRIZZLE   41  39  93 S16       29.77F
PIPESTONE      RAIN      43  41  93 SE8       29.68F
REDWOOD FALLS  CLOUDY    44  38  79 SE15      29.77F
TRACY          CLOUDY    44  40  86 SE9       29.74F
WINDOM         LGT RAIN  43  41  93 SE12      29.74F
WORTHINGTON    CLOUDY    43  37  81 SE14      29.71F
$$

IAZ001>003-012>014-020>022-031-032-NEZ013-014-SDZ071-240900-
NORTHWEST IOWA

CITY           SKY/WX    TMP DP  RH WIND       PRES   REMARKS
CHEROKEE       LGT RAIN  46  44  92 SE17G29   29.64F
DENISON        CLOUDY    46  43  87 NE14G23   29.65F
ESTHERVILLE    RAIN      43  43 100 SE24      29.71F FOG
LE MARS          N/A     50  48  93 E3        29.66F FOG
ORANGE CITY    RAIN      50  45  81 S6        29.67F
SHELDON        CLOUDY    48  46  93 SW5       29.69R
SIOUX CITY     LGT RAIN  50  47  89 CALM      29.65F
SPENCER        LGT RAIN  47  44  90 SE30G36   29.66F
STORM LAKE     CLOUDY    45  43  93 E18G26    29.68F
$$

ABBREVIATIONS USED IN REMARKS
   TC - TEMPERATURE IN CELSIUS
  WCI - WIND CHILL INDEX
   HX - HEAT INDEX
  VSB - VISIBILITY




USA.gov is the U.S. government's official web portal to all federal, state and local government web resources and services.